Weather History for Morris, IL

Change the Weather History Date:

Thursday, February 14, 2013

  Actual Average (KLOT) Record (KLOT)
Temperature  
Mean Temperature 36 °F 27 °F  
Max Temperature 40 °F 35 °F 56 °F (2006)
Min Temperature 32 °F 19 °F 4 °F (2007)
Degree Days  
Heating Degree Days 29 38  
Month to date heating degree days 554  
Since 1 July heating degree days 4235  
Cooling Degree Days 0 0  
Month to date cooling degree days 0  
Year to date cooling degree days 0  
Moisture  
Dew Point 31 °F    
Average Humidity 81    
Maximum Humidity 93    
Minimum Humidity 67    
Precipitation  
Precipitation 0.00 in 0.06 in 0.23 in (2003)
Month to date precipitation 0.79  
Year to date precipitation 2.72  
Snow  
Snow 0.00 in 0.30 in 2.80 in (2003)
Month to date snowfall 3.5  
Since 1 July snowfall 24.5  
Snow Depth -    
Sea Level Pressure  
Sea Level Pressure 29.80 in    
Wind  
Wind Speed 10 mph (WSW)    
Max Wind Speed 24 mph    
Max Gust Speed 31 mph    
Visibility 10 miles    
Events Snow    
T = Trace of Precipitation, MM = Missing Value Source: NWS Daily Summary

Daily Weather History Graph

Daily Weather History Graph

Search for Another Location

Airport:

Trip Planner

Search our weather history database for the weather conditions in past years. The results will help you decide how hot, cold, wet, or windy it might be!

Date:

Astronomy

Feb. 14, 2013 Rise Set
Actual Time 6:49 AM CST 5:26 PM CST
Civil Twilight 6:21 AM CST 5:55 PM CST
Nautical Twilight 5:48 AM CST 6:27 PM CST
Astronomical Twilight 5:16 AM CST 6:59 PM CST
Moon 8:47 AM CST (2/14) 10:33 PM CST (2/14)
Length of Visible Light 11h 33m
Length of Day
10h 36m
Waxing Crescent, 22% of the Moon is Illuminated
Feb 14
Waxing Crescent
Feb 17
First Quarter
Feb 25
Full
Mar 4
Last Quarter
Mar 11
New

Hourly Weather History & Observations

Time (CST) Temp. Windchill Dew Point Humidity Pressure Visibility Wind Dir Wind Speed Gust Speed Precip Events Conditions
12:15 AM 34.2 °F 29.0 °F 32.0 °F 92% 29.74 in 10.0 mi South 5.8 mph - N/A   Overcast
12:35 AM 34.3 °F 28.4 °F 32.0 °F 91% 29.74 in 10.0 mi South 6.9 mph - N/A   Overcast
12:55 AM 34.7 °F 29.6 °F 32.0 °F 90% 29.73 in 10.0 mi South 5.8 mph - N/A   Mostly Cloudy
1:15 AM 34.7 °F 31.8 °F 32.0 °F 90% 29.73 in 10.0 mi South 3.5 mph - N/A   Overcast
1:35 AM 35.8 °F 31.9 °F 32.0 °F 86% 29.72 in 10.0 mi South 4.6 mph - N/A   Overcast
1:55 AM 34.9 °F 29.9 °F 32.0 °F 89% 29.71 in 10.0 mi South 5.8 mph - N/A   Overcast
2:15 AM 35.6 °F 30.7 °F 32.0 °F 87% 29.71 in 10.0 mi South 5.8 mph - N/A   Overcast
2:35 AM 36.1 °F 29.9 °F 32.2 °F 86% 29.71 in 10.0 mi SSW 8.1 mph - N/A   Overcast
2:55 AM 37.4 °F 31.4 °F 32.0 °F 81% 29.70 in 10.0 mi SW 8.1 mph - N/A   Overcast
3:15 AM 37.8 °F 30.2 °F 32.0 °F 80% 29.68 in 10.0 mi South 11.5 mph - N/A   Overcast
3:35 AM 37.6 °F 30.0 °F 32.0 °F 80% 29.67 in 10.0 mi South 11.5 mph - N/A   Overcast
3:55 AM 38.3 °F 31.4 °F 32.0 °F 78% 29.66 in 10.0 mi South 10.4 mph - N/A   Overcast
4:15 AM 38.1 °F 30.7 °F 32.0 °F 79% 29.66 in 10.0 mi SSW 11.5 mph - N/A   Overcast
4:35 AM 37.6 °F 29.1 °F 32.0 °F 80% 29.67 in 10.0 mi SSW 13.8 mph - N/A   Overcast
4:55 AM 37.4 °F 29.3 °F 32.0 °F 81% 29.67 in 10.0 mi SSW 12.7 mph - N/A   Overcast
5:15 AM 37.4 °F 29.3 °F 32.0 °F 81% 29.67 in 10.0 mi SSW 12.7 mph - N/A   Overcast
5:35 AM 36.5 °F 28.2 °F 32.0 °F 84% 29.67 in 10.0 mi SSW 12.7 mph - N/A   Overcast
5:55 AM 35.6 °F 28.0 °F 32.0 °F 87% 29.67 in 10.0 mi SSW 10.4 mph - N/A   Scattered Clouds
6:15 AM 35.2 °F 28.1 °F 31.8 °F 87% 29.67 in 10.0 mi SSW 9.2 mph - N/A   Clear
6:35 AM 35.6 °F 28.0 °F 32.0 °F 87% 29.68 in 10.0 mi SW 10.4 mph - N/A   Clear
6:55 AM 36.5 °F 28.7 °F 32.0 °F 84% 29.68 in 10.0 mi WSW 11.5 mph - N/A   Clear
7:15 AM 36.5 °F 27.4 °F 32.0 °F 84% 29.68 in 10.0 mi WSW 15.0 mph - N/A   Clear
7:35 AM 36.0 °F 27.1 °F 32.0 °F 86% 29.69 in 10.0 mi WSW 13.8 mph - N/A   Clear
7:55 AM 35.6 °F 27.5 °F 32.0 °F 87% 29.70 in 10.0 mi WSW 11.5 mph - N/A   Scattered Clouds
8:15 AM 36.5 °F 28.2 °F 32.0 °F 84% 29.71 in 10.0 mi WSW 12.7 mph - N/A   Mostly Cloudy
8:35 AM 37.0 °F 28.9 °F 32.0 °F 82% 29.71 in 10.0 mi WSW 12.7 mph - N/A   Overcast
8:55 AM 37.8 °F 29.4 °F 32.0 °F 80% 29.71 in 10.0 mi WSW 13.8 mph - N/A   Overcast
9:15 AM 37.8 °F 28.6 °F 32.0 °F 80% 29.72 in 10.0 mi WSW 16.1 mph 24.2 mph N/A   Overcast
9:35 AM 37.6 °F 27.4 °F 32.0 °F 80% 29.73 in 10.0 mi West 19.6 mph 23.0 mph N/A   Overcast
9:55 AM 37.6 °F 27.1 °F 31.1 °F 77% 29.73 in 10.0 mi West 20.7 mph 29.9 mph N/A   Overcast
10:15 AM 37.6 °F 27.7 °F 30.6 °F 76% 29.73 in 10.0 mi West 18.4 mph - N/A   Overcast
10:35 AM 38.3 °F 28.7 °F 31.8 °F 77% 29.74 in 10.0 mi West 18.4 mph 24.2 mph N/A   Overcast
10:55 AM 38.7 °F 27.8 °F 31.5 °F 75% 29.74 in 10.0 mi West 24.2 mph 28.8 mph N/A   Overcast
11:15 AM 39.4 °F 29.2 °F 31.6 °F 74% 29.75 in 10.0 mi West 21.9 mph 31.1 mph N/A   Overcast
11:35 AM 38.8 °F 28.3 °F 31.8 °F 76% 29.76 in 10.0 mi West 23.0 mph 31.1 mph N/A   Overcast
11:55 AM 38.3 °F 28.7 °F 31.8 °F 77% 29.76 in 10.0 mi West 18.4 mph 29.9 mph N/A   Overcast
12:15 PM 38.3 °F 28.1 °F 31.6 °F 77% 29.77 in 10.0 mi West 20.7 mph 27.6 mph N/A   Overcast
12:35 PM 38.3 °F 28.4 °F 32.0 °F 78% 29.76 in 10.0 mi West 19.6 mph 28.8 mph N/A   Overcast
12:55 PM 38.3 °F 27.8 °F 32.0 °F 78% 29.77 in 10.0 mi West 21.9 mph 27.6 mph N/A   Overcast
1:15 PM 39.0 °F 29.0 °F 32.2 °F 76% 29.77 in 10.0 mi West 20.7 mph 28.8 mph N/A   Overcast
1:35 PM 39.7 °F 29.7 °F 32.2 °F 74% 29.77 in 10.0 mi WNW 21.9 mph - N/A   Overcast
1:55 PM 40.1 °F 29.9 °F 32.0 °F 73% 29.79 in 10.0 mi West 23.0 mph 29.9 mph N/A   Overcast
2:15 PM 39.7 °F 30.6 °F 32.0 °F 74% 29.81 in 10.0 mi West 18.4 mph 27.6 mph N/A   Overcast
2:35 PM 40.6 °F 30.9 °F 31.5 °F 70% 29.82 in 10.0 mi WNW 21.9 mph 26.5 mph N/A   Overcast
2:55 PM 40.1 °F 30.7 °F 30.2 °F 68% 29.83 in 10.0 mi WNW 19.6 mph 28.8 mph N/A   Overcast
3:15 PM 39.6 °F 31.0 °F 30.6 °F 70% 29.84 in 10.0 mi WNW 16.1 mph - N/A   Overcast
3:35 PM 40.1 °F 31.6 °F 31.3 °F 71% 29.85 in 10.0 mi West 16.1 mph 20.7 mph N/A   Overcast
3:55 PM 40.1 °F 32.0 °F 30.6 °F 69% 29.86 in 10.0 mi WNW 15.0 mph 21.9 mph N/A   Overcast
4:15 PM 39.6 °F 29.7 °F 29.3 °F 67% 29.87 in 10.0 mi WNW 20.7 mph 26.5 mph N/A   Overcast
4:35 PM 39.0 °F 32.3 °F 30.9 °F 73% 29.89 in 10.0 mi WNW 10.4 mph 17.3 mph N/A   Overcast
4:55 PM 38.3 °F 30.9 °F 29.7 °F 71% 29.90 in 10.0 mi WNW 11.5 mph - N/A   Overcast
5:15 PM 37.4 °F 31.4 °F 30.2 °F 75% 29.91 in 10.0 mi NW 8.1 mph - N/A   Overcast
5:35 PM 36.9 °F 29.6 °F 28.0 °F 70% 29.92 in 10.0 mi NW 10.4 mph - N/A   Overcast
5:55 PM 35.6 °F 29.9 °F 28.0 °F 74% 29.93 in 10.0 mi NW 6.9 mph - N/A   Overcast
6:15 PM 33.4 °F 27.3 °F 27.9 °F 80% 29.94 in 10.0 mi WNW 6.9 mph - N/A   Mostly Cloudy
6:35 PM 32.7 °F 28.3 °F 27.7 °F 82% 29.95 in 10.0 mi NW 4.6 mph - N/A   Mostly Cloudy
6:55 PM 33.1 °F 30.0 °F 28.0 °F 82% 29.96 in 10.0 mi West 3.5 mph - N/A   Mostly Cloudy
7:15 PM 33.3 °F - 28.4 °F 82% 29.96 in 10.0 mi Calm Calm - N/A   Overcast
7:35 PM 32.9 °F - 28.4 °F 84% 29.96 in 10.0 mi Calm Calm - N/A   Overcast
7:55 PM 33.8 °F - 28.4 °F 81% 29.96 in 10.0 mi Calm Calm - N/A   Overcast
8:15 PM 33.3 °F - 28.6 °F 83% 29.96 in 10.0 mi Calm Calm - N/A   Overcast
8:35 PM 33.3 °F 30.2 °F 29.1 °F 85% 29.97 in 10.0 mi West 3.5 mph - N/A   Overcast
8:55 PM 32.9 °F 29.8 °F 28.9 °F 85% 29.97 in 10.0 mi WSW 3.5 mph - N/A   Overcast
9:15 PM 32.9 °F 28.5 °F 29.1 °F 86% 29.97 in 10.0 mi WSW 4.6 mph - N/A   Overcast
9:35 PM 34.0 °F 28.8 °F 28.4 °F 80% 29.98 in 10.0 mi WSW 5.8 mph - N/A   Overcast
9:55 PM 33.8 °F 27.7 °F 29.3 °F 84% 29.98 in 10.0 mi West 6.9 mph - N/A   Overcast
10:15 PM 34.2 °F 26.2 °F 29.1 °F 82% 29.98 in 5.0 mi WNW 10.4 mph - N/A Snow Light Snow
10:35 PM 32.9 °F 25.9 °F 30.0 °F 89% 29.98 in 1.8 mi West 8.1 mph - N/A Snow Light Snow
10:55 PM 32.5 °F 26.2 °F 30.6 °F 92% 29.98 in 10.0 mi West 6.9 mph - N/A   Overcast
11:15 PM 32.4 °F 27.9 °F 30.2 °F 92% 29.98 in 10.0 mi West 4.6 mph - N/A   Overcast
11:35 PM 32.2 °F 27.7 °F 30.2 °F 92% 29.98 in 10.0 mi West 4.6 mph - N/A   Overcast
11:55 PM 32.0 °F 28.7 °F 30.2 °F 93% 29.98 in 10.0 mi WSW 3.5 mph - N/A   Overcast